IONOSFERA-M 3

Last updated on Mon Sep 21 2026 00:02:46 GMT+0000 (Coordinated Universal Time)

1 64876U 25155A 26263.62207522 .00000033 00000+0 34583-4 0 9996 2 64876 98.6150 223.1723 0000844 4.5234 355.5951 14.21499976 59960
UTC large
Height (km)
Speed (km/s)
/
Latitude / Longitude
Inclination (degrees)
Orbital Period (minutes)
Azimuth
Elevation
Range (km)
Doppler Factor

Next 0 passes for location: London (51.5072 / 0.1276)

No passes found over London.
IONOSFERA-M 3